[[{"header":{"parameterUnit":"m.s-1","parameterCategory":1,"la1":30.2991,"la2":30.254,"lo1":-89.0895,"lo2":-89.0444,"dy":0.0017,"dx":0.0017,"nx":28,"ny":28,"refTime":"2025-07-24T21:00:00:Z","depth":0,"parameterNumber":2,"parameterNumberName":"U-component_of_WINDS"},"data":[0,0,0,0,0,0,0,0,0,0,0,0,0,0,0,0,0,0,0,0,0,0,0,0,0,0,0,0,0,0,0,0,0,0,0,0,0,0,0,0,0,0,0,0,0,0,0,0,0,0,0,0,0,0,0,0,0,0,-2.2426,-2.2425,0,-2.2335,-2.2334,-2.2333,-2.228,-2.228,-2.228,-2.228,-2.2181,-2.2179,-2.2176,0,0,0,0,0,0,0,0,0,0,0,0,0,-2.2551,-2.2549,-2.2426,-2.2425,-2.2424,-2.2335,-2.2334,-2.2332,-2.228,-2.228,-2.228,-2.228,-2.2182,-2.2179,-2.2176,0,0,0,0,0,0,0,0,0,0,0,0,0,-2.2482,-2.2548,-2.2426,-2.2387,-2.2383,-2.2335,-2.2334,-2.2332,-2.228,-2.228,-2.228,-2.228,-2.2183,-2.218,-2.2176,-2.2158,0,0,-2.2165,-2.2163,0,0,0,0,0,0,0,0,-2.2486,-2.2477,-2.2394,-2.239,-2.2385,-2.2319,-2.2341,-2.2274,-2.2281,-2.2319,-2.228,-2.228,-2.2227,-2.222,-2.2203,-2.2154,-2.2149,-2.2164,-2.2162,-2.216,-2.2159,0,0,0,0,0,0,0,-2.249,-2.2481,-2.239,-2.2393,-2.2387,-2.2373,-2.2363,-2.2328,-2.2275,-2.2316,-2.2312,-2.2302,-2.2224,-2.2207,-2.22,-2.2148,-2.2164,-2.2161,-2.2159,-2.2157,-2.208,-2.208,0,0,0,0,0,0,-2.2502,-2.2485,-2.2392,-2.2387,-2.2436,-2.2371,-2.236,-2.234,-2.2276,-2.2266,-2.2302,-2.23,-2.2213,-2.2205,-2.2197,-2.2172,-2.216,-2.2157,-2.2155,-2.208,-2.208,-2.208,0,0,0,0,0,0,-2.2505,-2.2494,-2.2396,-2.2435,-2.2421,-2.2369,-2.2348,-2.2338,-2.2321,-2.2266,-2.2255,-2.2294,-2.2212,-2.2202,-2.2169,-2.2168,-2.2155,-2.2152,-2.208,-2.208,-2.208,-2.2122,0,0,0,0,0,0,-2.2509,-2.2496,-2.2489,-2.2435,-2.242,-2.2371,-2.2348,-2.2337,-2.2315,-2.2311,-2.2255,-2.2246,-2.2211,-2.2174,-2.2165,-2.2162,-2.2149,-2.2079,-2.208,-2.208,-2.2121,-2.2124,-2.2127,0,0,0,0,0,-2.2513,-2.2504,-2.2489,-2.2478,-2.2411,-2.2371,-2.2362,-2.2324,-2.2315,-2.2308,-2.2273,-2.2248,-2.217,-2.2172,-2.216,-2.2157,-2.2079,-2.208,-2.208,-2.2119,-2.2123,-2.2127,0,0,0,0,0,0,-2.2557,-2.2496,-2.2479,-2.2452,-2.2418,-2.2363,-2.2352,-2.233,-2.2295,-2.2293,-2.2246,-2.2234,-2.2205,-2.2177,-2.2181,-2.2136,-2.2122,-2.212,-2.2155,-2.2159,-2.2162,-2.2168,-2.2146,0,0,0,0,0,-2.2564,-2.2538,-2.2486,-2.2466,-2.245,-2.2404,-2.2386,-2.236,-2.2321,-2.2306,-2.2268,-2.2231,-2.2198,-2.2177,-2.2143,-2.2117,-2.2104,-2.2109,-2.2112,-2.2115,-2.2113,-2.2097,-2.2099,-2.2081,-2.2081,-2.2081,0,0,-2.2576,-2.254,-2.2526,-2.2474,-2.2444,-2.2418,-2.2392,-2.2365,-2.2344,-2.2301,-2.2268,-2.2239,-2.2194,-2.2165,-2.215,-2.2141,-2.2115,-2.2115,-2.2118,-2.2114,-2.2098,-2.2099,-2.2101,-2.2082,-2.2082,-2.2082,0,0,-2.2586,-2.2557,-2.2538,-2.2509,-2.2465,-2.2435,-2.2431,-2.2379,-2.2359,-2.2326,-2.2293,-2.2267,-2.2212,-2.2181,-2.2158,-2.2159,-2.2134,-2.2149,-2.2164,-2.2149,-2.215,-2.2151,-2.2151,-2.2151,-2.2148,-2.2148,-2.2148,0,-2.2607,-2.2567,-2.253,-2.2505,-2.2483,-2.2445,-2.2425,-2.2399,-2.2345,-2.233,-2.2322,-2.2252,-2.2219,-2.2181,-2.2182,-2.2165,-2.2157,-2.2154,-2.2153,-2.2154,-2.2154,-2.2153,-2.2153,-2.215,-2.215,-2.215,-2.2149,0,-2.2595,-2.2568,-2.2558,-2.251,-2.2487,-2.2464,-2.2422,-2.2403,-2.238,-2.235,-2.2317,-2.2276,-2.2234,-2.2224,-2.22,-2.2183,-2.2179,-2.2163,-2.2147,-2.2159,-2.2157,-2.2156,-2.2153,-2.2152,-2.2152,-2.2151,0,0,-2.2628,-2.2561,-2.2558,-2.2536,-2.2486,-2.2463,-2.2439,-2.24,-2.2384,-2.2349,-2.2327,-2.2282,-2.2267,-2.2241,-2.2213,-2.22,-2.2203,-2.2185,-2.2183,-2.2189,-2.2182,-2.2194,-2.2194,-2.2187,-2.2187,-2.2187,-2.2185,0,-2.263,-2.2587,-2.2553,-2.2522,-2.2496,-2.2461,-2.2439,-2.2406,-2.2378,-2.2351,-2.2319,-2.2288,-2.2271,-2.2255,-2.2241,-2.2206,-2.2201,-2.2206,-2.2164,-2.2163,-2.2176,-2.2193,-2.2205,-2.2206,-2.2184,-2.2184,-2.2184,0,-2.2626,-2.2595,-2.2562,-2.2515,-2.2503,-2.2485,-2.2446,-2.2422,-2.2382,-2.2363,-2.2336,-2.2308,-2.2279,-2.2268,-2.2227,-2.2232,-2.2213,-2.2194,-2.2193,-2.2186,-2.2174,-2.2186,-2.2205,-2.2205,-2.2183,-2.2183,-2.2183,0,-2.2654,-2.2603,-2.2576,-2.2559,-2.2503,-2.2491,-2.2468,-2.2428,-2.2407,-2.2373,-2.2359,-2.2322,-2.2301,-2.2273,-2.2235,-2.223,-2.2199,-2.2184,-2.2181,-2.2182,-2.2174,-2.2175,-2.219,-2.2164,-2.2164,-2.2164,-2.2164,0,-2.2659,-2.264,-2.2588,-2.2572,-2.2549,-2.251,-2.2488,-2.2461,-2.2427,-2.2404,-2.237,-2.2349,-2.2301,-2.2274,-2.2244,-2.2215,-2.2206,-2.2189,-2.2181,-2.2191,-2.2194,-2.2178,-2.2176,-2.2164,-2.2164,-2.2164,-2.2164,0,-2.2685,-2.2649,-2.2618,-2.257,-2.2557,-2.2542,-2.25,-2.2482,-2.2453,-2.2424,-2.2415,-2.2369,-2.2335,-2.2295,-2.2248,-2.2228,-2.2201,-2.219,-2.2215,-2.221,-2.2209,-2.221,-2.2213,-2.2211,-2.2189,-2.2189,-2.2189,0,-2.269,-2.2675,-2.2625,-2.2608,-2.2586,-2.2559,-2.2538,-2.2499,-2.2478,-2.2434,-2.2421,-2.2385,-2.2354,-2.2302,-2.2263,-2.2227,-2.2214,-2.2218,-2.2208,-2.2219,-2.2213,-2.2214,-2.2212,-2.222,-2.222,-2.2221,-2.2221,0,-2.2704,-2.2687,-2.2659,-2.2625,-2.2602,-2.2572,-2.2541,-2.2529,-2.2484,-2.2462,-2.2428,-2.2405,-2.2357,-2.2322,-2.2281,-2.2254,-2.223,-2.2225,-2.2222,-2.2232,-2.2247,-2.2238,-2.2221,-2.2224,-2.2224,-2.2224,-2.2223,-2.2223,-2.2719,-2.2704,-2.2667,-2.2637,-2.261,-2.2582,-2.2564,-2.2533,-2.2505,-2.2465,-2.2443,-2.241,-2.2371,-2.2314,-2.2289,-2.2261,-2.2252,-2.2248,-2.2247,-2.2247,-2.2249,-2.2252,-2.2253,-2.2253,-2.2253,-2.2253,-2.2253,0,-2.273,-2.2705,-2.2678,-2.2637,-2.2613,-2.2595,-2.256,-2.254,-2.2512,-2.2479,-2.245,-2.2411,-2.2377,-2.2336,-2.2299,-2.2284,-2.2272,-2.2276,-2.2276,-2.227,-2.2259,-2.2265,-2.2286,-2.2286,-2.2286,-2.2286,-2.2286,-2.2286,-2.2733,-2.2707,-2.2686,-2.2646,-2.2621,-2.2589,-2.2571,-2.2545,-2.2518,-2.2477,-2.2449,-2.2424,-2.2387,-2.2347,-2.2315,-2.2303,-2.2291,-2.2298,-2.2283,-2.2274,-2.2271,-2.2268,-2.2273,-2.2296,-2.2296,-2.2296,-2.2296,-2.2296]},{"header":{"parameterUnit":"m.s-1","parameterCategory":1,"la1":30.2991,"la2":30.254,"lo1":-89.0895,"lo2":-89.0444,"dy":0.0017,"dx":0.0017,"nx":28,"ny":28,"refTime":"2025-07-24T21:00:00:Z","depth":0,"parameterNumber":3,"parameterNumberName":"V-component_of_WINDS"},"data":[0,0,0,0,0,0,0,0,0,0,0,0,0,0,0,0,0,0,0,0,0,0,0,0,0,0,0,0,0,0,0,0,0,0,0,0,0,0,0,0,0,0,0,0,0,0,0,0,0,0,0,0,0,0,0,0,0,0,5.1146,5.1146,0,5.1205,5.1206,5.1207,5.1175,5.1174,5.1172,5.1171,5.1227,5.123,5.1233,0,0,0,0,0,0,0,0,0,0,0,0,0,5.1,5.1003,5.1146,5.1146,5.1147,5.1205,5.1206,5.1207,5.1176,5.1174,5.1172,5.117,5.1226,5.1229,5.1233,0,0,0,0,0,0,0,0,0,0,0,0,0,5.1062,5.1004,5.1145,5.1139,5.1139,5.1205,5.1206,5.1207,5.1176,5.1174,5.1171,5.1169,5.1225,5.1229,5.1233,5.1308,0,0,5.1247,5.1249,0,0,0,0,0,0,0,0,5.1058,5.1067,5.1139,5.1139,5.1139,5.1181,5.1175,5.1241,5.1177,5.1162,5.1171,5.1168,5.1213,5.1218,5.1235,5.1311,5.1313,5.1247,5.125,5.1252,5.1253,0,0,0,0,0,0,0,5.1054,5.1064,5.1169,5.114,5.114,5.1131,5.1137,5.1187,5.12,5.1163,5.1161,5.1168,5.1213,5.123,5.1236,5.1314,5.1247,5.1251,5.1254,5.1256,5.1454,5.1457,0,0,0,0,0,0,5.1051,5.1061,5.1167,5.1171,5.1092,5.1136,5.1142,5.117,5.1199,5.1201,5.117,5.1167,5.1224,5.123,5.1237,5.1327,5.1252,5.1256,5.1259,5.1452,5.1455,5.1458,0,0,0,0,0,0,5.1048,5.106,5.1165,5.1115,5.1128,5.1141,5.1171,5.1172,5.119,5.1205,5.1206,5.1187,5.1222,5.1231,5.1291,5.1329,5.1258,5.1262,5.1449,5.1453,5.1456,5.1507,0,0,0,0,0,0,5.1044,5.106,5.1089,5.1116,5.1131,5.1219,5.1174,5.1175,5.1198,5.1194,5.1221,5.1223,5.1221,5.1285,5.1296,5.1333,5.1266,5.1445,5.1451,5.1455,5.1502,5.1512,5.1521,0,0,0,0,0,5.1038,5.11,5.1091,5.1104,5.1169,5.1221,5.1229,5.1228,5.1201,5.123,5.124,5.1222,5.1323,5.1291,5.1303,5.1343,5.1443,5.1449,5.1455,5.1498,5.151,5.152,0,0,0,0,0,0,5.1076,5.1104,5.1094,5.1166,5.1192,5.1216,5.1253,5.1241,5.1273,5.1268,5.1263,5.1269,5.1332,5.1343,5.1307,5.1416,5.1379,5.1387,5.1407,5.1419,5.1428,5.1424,5.1269,0,0,0,0,0,5.1093,5.1135,5.1156,5.1218,5.1232,5.124,5.1263,5.126,5.1285,5.1296,5.131,5.1334,5.1371,5.1395,5.143,5.1503,5.1508,5.1536,5.1546,5.1553,5.1561,5.16,5.1612,5.1477,5.1477,5.1477,0,0,5.1127,5.1148,5.1174,5.1226,5.1246,5.1288,5.1249,5.1296,5.1327,5.1302,5.136,5.1371,5.1398,5.1465,5.1495,5.1476,5.1599,5.1561,5.1567,5.157,5.1607,5.162,5.1631,5.1481,5.148,5.148,0,0,5.1212,5.1233,5.1287,5.1307,5.1338,5.1343,5.1356,5.1382,5.1389,5.1447,5.143,5.1465,5.153,5.1549,5.1568,5.166,5.1644,5.1672,5.1721,5.1759,5.1769,5.1779,5.1812,5.1823,5.1679,5.1679,5.1679,0,5.1251,5.1317,5.1315,5.1364,5.1386,5.1367,5.1421,5.144,5.148,5.1495,5.1474,5.1555,5.1571,5.1642,5.1665,5.168,5.1694,5.1669,5.1768,5.1778,5.1786,5.1818,5.183,5.1682,5.1682,5.1682,5.1681,0,5.1363,5.1408,5.1447,5.1488,5.1515,5.1566,5.1571,5.1598,5.1592,5.1599,5.1658,5.1678,5.1716,5.1733,5.1727,5.1803,5.179,5.1769,5.1731,5.1802,5.1832,5.1844,5.1687,5.1686,5.1685,5.1684,0,0,5.1473,5.1513,5.1527,5.1546,5.1578,5.1612,5.1661,5.17,5.1724,5.1751,5.1792,5.1846,5.1827,5.1848,5.1844,5.1877,5.1949,5.1851,5.1852,5.1869,5.2034,5.205,5.2064,5.1939,5.1941,5.1943,5.2031,0,5.156,5.1649,5.1649,5.1729,5.1771,5.1753,5.1796,5.1819,5.1827,5.1862,5.1869,5.1908,5.188,5.1892,5.1925,5.1934,5.1982,5.1927,5.1975,5.1977,5.1969,5.2079,5.2096,5.2179,5.2043,5.2045,5.2046,0,5.1674,5.1708,5.1793,5.182,5.1837,5.1875,5.1911,5.1945,5.1971,5.1974,5.1998,5.1988,5.2037,5.1997,5.2063,5.2026,5.2045,5.2053,5.2056,5.206,5.2016,5.2086,5.2205,5.2218,5.2064,5.2063,5.2061,0,5.1746,5.1812,5.1872,5.1888,5.192,5.1948,5.1962,5.1986,5.2009,5.204,5.2055,5.209,5.2109,5.2136,5.2136,5.2108,5.2203,5.2163,5.2206,5.2206,5.2227,5.2226,5.2351,5.224,5.2239,5.2239,5.2239,0,5.1844,5.1897,5.1905,5.1942,5.2,5.1999,5.2056,5.2067,5.2088,5.2126,5.2112,5.2147,5.2145,5.218,5.218,5.2234,5.2243,5.2246,5.2245,5.2248,5.2247,5.226,5.2255,5.2242,5.2242,5.2241,5.2241,0,5.1934,5.1942,5.2006,5.2032,5.2039,5.2081,5.2102,5.2136,5.2142,5.219,5.2201,5.2211,5.2251,5.2254,5.23,5.23,5.2367,5.2359,5.2359,5.2357,5.24,5.2396,5.2538,5.2556,5.2433,5.2434,5.2435,0,5.1996,5.2037,5.2067,5.2092,5.2109,5.2149,5.2173,5.2173,5.2199,5.2231,5.2261,5.2301,5.2333,5.2398,5.2408,5.2443,5.2437,5.2484,5.2442,5.2443,5.2438,5.2435,5.2439,5.2492,5.2494,5.2495,5.2496,0,5.2106,5.2108,5.2144,5.2183,5.2213,5.2242,5.227,5.229,5.2293,5.2322,5.2365,5.2389,5.2437,5.2477,5.2511,5.2524,5.251,5.2509,5.2521,5.2523,5.2521,5.2523,5.2381,5.2506,5.2505,5.2504,5.2504,5.2503,5.2184,5.2219,5.2246,5.2287,5.2308,5.2335,5.2368,5.2379,5.2415,5.2456,5.2453,5.2499,5.2523,5.2568,5.2584,5.2619,5.2603,5.262,5.2624,5.2628,5.2633,5.2516,5.2625,5.2625,5.2625,5.2624,5.2624,0,5.2292,5.2309,5.2347,5.2387,5.2419,5.2405,5.2435,5.2462,5.2504,5.2528,5.256,5.2608,5.2646,5.266,5.2696,5.2722,5.2716,5.2731,5.2729,5.2733,5.2645,5.2632,5.2735,5.2735,5.2735,5.2735,5.2735,5.2735,5.2353,5.2412,5.2417,5.2485,5.2501,5.2548,5.2566,5.259,5.2609,5.2664,5.2697,5.2706,5.2725,5.2763,5.2797,5.2799,5.2813,5.2831,5.2831,5.275,5.2739,5.2728,5.2715,5.2834,5.2834,5.2915,5.2916,5.2917]}]]